| time (UTC) | temp F | wind direction | speed knots | gust knots | rain 1hr in | rain 24hr in | rain mn in | humidity % | barometer mb |
| 20260507075929 | 66 | 193 | 3.5 | 7.0 | 0.00 | 0.00 | 0.00 | 56 | 1012.1 |
| 20260507075423 | 65 | 263 | 3.5 | 7.0 | 0.00 | 0.00 | 0.00 | 55 | 1012.1 |
| 20260507074410 | 65 | 226 | 2.6 | 4.3 | 0.00 | 0.00 | 0.00 | 59 | 1012.1 |
| 20260507073357 | 64 | 191 | 2.6 | 6.1 | 0.00 | 0.00 | 0.00 | 58 | 1012.1 |
| 20260507072344 | 64 | 203 | 3.5 | 5.2 | 0.00 | 0.00 | 0.00 | 60 | 1011.9 |
| 20260507071331 | 62 | 257 | 2.6 | 4.3 | 0.00 | 0.00 | 0.00 | 63 | 1011.9 |
| 20260507070825 | 62 | 222 | 2.6 | 5.2 | 0.00 | 0.00 | 0.00 | 61 | 1011.8 |
| 20260507070319 | 64 | 195 | 2.6 | 7.0 | 0.00 | 0.00 | 0.00 | 60 | 1011.8 |
| 20260507065812 | 64 | 206 | 3.5 | 6.1 | 0.00 | 0.00 | 0.00 | 61 | 1011.7 |
| 20260507065306 | 64 | 188 | 2.6 | 5.2 | 0.00 | 0.00 | 0.00 | 62 | 1011.7 |
| 20260507064759 | 64 | 208 | 1.7 | 3.5 | 0.00 | 0.00 | 0.00 | 66 | 1011.6 |
| 20260507063746 | 62 | 234 | 1.7 | 2.6 | 0.00 | 0.00 | 0.00 | 70 | 1011.6 |
| 20260507063240 | 61 | 227 | 1.7 | 3.5 | 0.00 | 0.00 | 0.00 | 74 | 1011.6 |
| 20260507062734 | 60 | 240 | 1.7 | 2.6 | 0.00 | 0.00 | 0.00 | 75 | 1011.6 |
| 20260507062227 | 60 | 169 | 2.6 | 4.3 | 0.00 | 0.00 | 0.00 | 75 | 1011.5 |
| 20260507061215 | 58 | 255 | 1.7 | 4.3 | 0.00 | 0.00 | 0.00 | 80 | 1011.5 |
| 20260507060709 | 57 | 219 | 1.7 | 2.6 | 0.00 | 0.00 | 0.00 | 82 | 1011.3 |
| 20260507060203 | 57 | 168 | 1.7 | 2.6 | 0.00 | 0.00 | 0.00 | 84 | 1011.3 |
| 20260507055657 | 57 | 233 | 1.7 | 2.6 | 0.00 | 0.00 | 0.00 | 85 | 1011.2 |
| 20260507055151 | 57 | 217 | 1.7 | 3.5 | 0.00 | 0.00 | 0.00 | 86 | 1011.1 |
| 20260507054138 | 56 | 133 | 0.9 | 1.7 | 0.00 | 0.00 | 0.00 | 89 | 1011.0 |
| 20260507052620 | 55 | 106 | 0.0 | 0.0 | 0.00 | 0.00 | 0.00 | 93 | 1010.9 |
| 20260507051609 | 52 | 315 | 0.0 | 0.0 | 0.00 | 0.00 | 0.00 | 94 | 1010.8 |
| 20260507050558 | 50 | 334 | 0.0 | 0.0 | 0.00 | 0.00 | 0.00 | 93 | 1010.7 |
| 20260507050051 | 49 | 60 | 0.0 | 0.0 | 0.00 | 0.00 | 0.00 | 93 | 1010.7 |
| 20260507045546 | 48 | 54 | 0.0 | 0.0 | 0.00 | 0.00 | 0.00 | 91 | 1010.6 |
| 20260507045040 | 48 | 355 | 0.0 | 0.0 | 0.00 | 0.00 | 0.00 | 90 | 1010.6 |
| 20260507044534 | 47 | 315 | 0.0 | 0.0 | 0.00 | 0.00 | 0.00 | 89 | 1010.5 |
| 20260507044028 | 47 | 18 | 0.0 | 0.0 | 0.00 | 0.00 | 0.00 | 89 | 1010.4 |
| 20260507043523 | 47 | 29 | 0.0 | 0.0 | 0.00 | 0.00 | 0.00 | 88 | 1010.3 |
| 20260507043017 | 47 | 350 | 0.0 | 0.0 | 0.00 | 0.00 | 0.00 | 88 | 1010.2 |
| 20260507042006 | 47 | 0 | 0.0 | 0.0 | 0.00 | 0.00 | 0.00 | 88 | 1010.1 |
| 20260507041500 | 47 | 359 | 0.0 | 0.0 | 0.00 | 0.00 | 0.00 | 88 | 1010.1 |
| 20260507040954 | 47 | 63 | 0.0 | 0.0 | 0.00 | 0.00 | 0.00 | 88 | 1010.1 |
| 20260507040449 | 47 | 333 | 0.0 | 0.0 | 0.00 | 0.00 | 0.00 | 88 | 1010.2 |
| 20260507035943 | 47 | 315 | 0.0 | 0.0 | 0.00 | 0.00 | 0.00 | 87 | 1010.1 |
| 20260507035437 | 47 | 315 | 0.0 | 0.0 | 0.00 | 0.00 | 0.00 | 87 | 1010.1 |
| 20260507034932 | 47 | 315 | 0.0 | 0.0 | 0.00 | 0.00 | 0.00 | 86 | 1010.1 |
| 20260507034426 | 47 | 315 | 0.0 | 0.0 | 0.00 | 0.00 | 0.00 | 86 | 1010.1 |
| 20260507033415 | 47 | 350 | 0.0 | 0.0 | 0.00 | 0.00 | 0.00 | 86 | 1009.9 |
| 20260507032909 | 47 | 0 | 0.0 | 0.0 | 0.00 | 0.00 | 0.00 | 86 | 1009.8 |
| 20260507025835 | 48 | 315 | 0.0 | 0.0 | 0.00 | 0.00 | 0.00 | 86 | 1009.7 |
| 20260507025329 | 48 | 315 | 0.0 | 0.0 | 0.00 | 0.00 | 0.00 | 86 | 1009.6 |
| 20260507024823 | 48 | 315 | 0.0 | 0.0 | 0.00 | 0.00 | 0.00 | 86 | 1009.7 |
| 20260507024318 | 48 | 315 | 0.0 | 0.0 | 0.00 | 0.00 | 0.00 | 85 | 1009.7 |
| 20260507023812 | 48 | 315 | 0.0 | 0.0 | 0.00 | 0.00 | 0.00 | 85 | 1009.6 |
| 20260507022801 | 49 | 312 | 0.0 | 0.0 | 0.00 | 0.00 | 0.00 | 85 | 1009.7 |
| 20260507022255 | 49 | 306 | 0.0 | 0.0 | 0.00 | 0.00 | 0.00 | 85 | 1009.7 |
| 20260507014714 | 50 | 280 | 0.0 | 0.0 | 0.00 | 0.00 | 0.00 | 85 | 1009.3 |
| 20260507014209 | 50 | 274 | 0.0 | 0.0 | 0.00 | 0.00 | 0.00 | 85 | 1009.3 |
| 20260507012651 | 51 | 315 | 0.0 | 0.0 | 0.00 | 0.00 | 0.00 | 85 | 1009.3 |
| 20260507011640 | 51 | 262 | 0.0 | 0.0 | 0.00 | 0.00 | 0.00 | 85 | 1009.2 |
| 20260507011134 | 51 | 286 | 0.0 | 0.0 | 0.00 | 0.00 | 0.00 | 85 | 1009.2 |
| 20260507010628 | 51 | 315 | 0.0 | 0.0 | 0.00 | 0.00 | 0.00 | 85 | 1009.1 |
| 20260507010122 | 52 | 315 | 0.0 | 0.0 | 0.00 | 0.00 | 0.00 | 85 | 1009.0 |
| 20260507005616 | 52 | 315 | 0.0 | 0.0 | 0.00 | 0.00 | 0.00 | 85 | 1009.0 |
| 20260507005111 | 52 | 315 | 0.0 | 0.0 | 0.00 | 0.00 | 0.00 | 85 | 1009.0 |
| 20260507004059 | 52 | 315 | 0.0 | 0.0 | 0.00 | 0.00 | 0.00 | 85 | 1008.7 |
| 20260507003553 | 52 | 274 | 0.0 | 0.0 | 0.00 | 0.00 | 0.00 | 85 | 1008.6 |
| 20260507003047 | 53 | 308 | 0.0 | 0.0 | 0.00 | 0.00 | 0.00 | 85 | 1008.7 |
| 20260507001529 | 53 | 306 | 0.0 | 0.0 | 0.00 | 0.00 | 0.00 | 86 | 1008.6 |
| 20260507000517 | 53 | 267 | 0.0 | 0.0 | 0.00 | 0.00 | 0.00 | 86 | 1008.7 |
| 20260507000011 | 53 | 260 | 0.0 | 0.0 | 0.00 | 0.00 | 0.00 | 85 | 1008.6 |
| 20260506235000 | 54 | 319 | 0.0 | 0.0 | 0.00 | 0.00 | 0.00 | 85 | 1008.4 |
| 20260506234454 | 54 | 0 | 0.0 | 0.0 | 0.00 | 0.00 | 0.00 | 85 | 1008.4 |
| 20260506233948 | 54 | 293 | 0.0 | 0.0 | 0.00 | 0.00 | 0.00 | 85 | 1008.4 |
| 20260506233442 | 54 | 226 | 0.0 | 0.0 | 0.00 | 0.00 | 0.00 | 85 | 1008.3 |
| 20260506232936 | 54 | 278 | 0.0 | 0.0 | 0.00 | 0.00 | 0.00 | 85 | 1008.3 |
| 20260506232430 | 54 | 315 | 0.0 | 0.0 | 0.00 | 0.00 | 0.00 | 85 | 1008.1 |
| 20260506231924 | 54 | 233 | 0.0 | 0.0 | 0.00 | 0.00 | 0.00 | 86 | 1008.1 |
| 20260506231418 | 55 | 225 | 0.0 | 0.0 | 0.00 | 0.00 | 0.00 | 86 | 1008.1 |
| 20260506230406 | 55 | 327 | 0.0 | 0.0 | 0.00 | 0.00 | 0.00 | 86 | 1008.3 |
| 20260506224848 | 55 | 241 | 0.0 | 0.0 | 0.00 | 0.00 | 0.00 | 86 | 1008.1 |
| 20260506224342 | 55 | 222 | 0.0 | 0.0 | 0.00 | 0.00 | 0.00 | 87 | 1008.0 |
| 20260506223836 | 55 | 0 | 0.0 | 0.0 | 0.00 | 0.00 | 0.00 | 88 | 1007.9 |
| 20260506223330 | 55 | 9 | 0.0 | 0.0 | 0.00 | 0.00 | 0.00 | 88 | 1007.8 |
| 20260506222824 | 55 | 87 | 0.0 | 0.0 | 0.00 | 0.00 | 0.00 | 89 | 1007.9 |
| 20260506222318 | 56 | 59 | 0.0 | 0.0 | 0.00 | 0.00 | 0.00 | 86 | 1008.2 |
| 20260506221306 | 56 | 226 | 0.0 | 0.0 | 0.00 | 0.00 | 0.00 | 86 | 1008.3 |
| 20260506220800 | 56 | 220 | 0.0 | 0.0 | 0.00 | 0.00 | 0.00 | 86 | 1008.3 |
| 20260506215242 | 56 | 297 | 0.0 | 0.0 | 0.00 | 0.00 | 0.00 | 84 | 1008.0 |
| 20260506214230 | 57 | 251 | 0.9 | 0.9 | 0.00 | 0.00 | 0.00 | 83 | 1007.9 |
| 20260506212712 | 57 | 270 | 0.9 | 1.7 | 0.00 | 0.00 | 0.00 | 83 | 1007.7 |
| 20260506212205 | 57 | 270 | 0.0 | 0.0 | 0.00 | 0.00 | 0.00 | 83 | 1007.6 |
| 20260506211659 | 57 | 270 | 0.0 | 0.0 | 0.00 | 0.00 | 0.00 | 83 | 1007.5 |
| 20260506211153 | 57 | 297 | 0.0 | 0.0 | 0.00 | 0.00 | 0.00 | 83 | 1007.5 |
| 20260506210647 | 57 | 0 | 0.0 | 0.0 | 0.00 | 0.00 | 0.00 | 83 | 1007.5 |
| 20260506210141 | 57 | 0 | 0.0 | 0.0 | 0.00 | 0.00 | 0.00 | 83 | 1007.5 |
| 20260506204623 | 57 | 294 | 0.0 | 0.9 | 0.00 | 0.00 | 0.00 | 83 | 1007.6 |
| 20260506203611 | 57 | 359 | 0.0 | 0.9 | 0.00 | 0.00 | 0.00 | 84 | 1007.4 |
| 20260506203105 | 57 | 23 | 0.0 | 1.7 | 0.00 | 0.00 | 0.00 | 84 | 1007.5 |
| 20260506201546 | 58 | 155 | 0.9 | 1.7 | 0.00 | 0.00 | 0.00 | 83 | 1008.0 |
| 20260506201040 | 58 | 336 | 0.9 | 1.7 | 0.00 | 0.00 | 0.00 | 81 | 1008.0 |
| 20260506200534 | 58 | 293 | 0.9 | 1.7 | 0.00 | 0.00 | 0.00 | 81 | 1008.1 |
| 20260506200028 | 59 | 281 | 1.7 | 4.3 | 0.00 | 0.00 | 0.00 | 80 | 1008.0 |
| 20260506195015 | 59 | 263 | 2.6 | 6.1 | 0.00 | 0.00 | 0.00 | 79 | 1008.0 |
| 20260506194509 | 59 | 236 | 1.7 | 3.5 | 0.00 | 0.00 | 0.00 | 78 | 1007.9 |
| 20260506194003 | 59 | 248 | 0.9 | 1.7 | 0.00 | 0.00 | 0.00 | 76 | 1007.4 |
| 20260506193457 | 59 | 259 | 0.9 | 1.7 | 0.00 | 0.00 | 0.00 | 76 | 1006.9 |
| 20260506191938 | 60 | 317 | 0.0 | 0.0 | 0.00 | 0.00 | 0.00 | 74 | 1006.2 |
| 20260506190926 | 60 | 10 | 0.0 | 0.0 | 0.00 | 0.00 | 0.00 | 73 | 1006.0 |
| 20260506190420 | 60 | 319 | 0.0 | 0.0 | 0.00 | 0.00 | 0.00 | 71 | 1006.0 |
| 20260506185913 | 61 | 314 | 0.0 | 0.0 | 0.00 | 0.00 | 0.00 | 71 | 1006.1 |
| 20260506185407 | 61 | 0 | 0.0 | 0.0 | 0.00 | 0.00 | 0.00 | 71 | 1006.1 |
| 20260506184901 | 61 | 0 | 0.0 | 0.0 | 0.00 | 0.00 | 0.00 | 70 | 1005.9 |
| 20260506184354 | 61 | 0 | 0.0 | 0.0 | 0.00 | 0.00 | 0.00 | 70 | 1005.8 |
| 20260506183848 | 62 | 359 | 0.0 | 0.0 | 0.00 | 0.00 | 0.00 | 69 | 1005.7 |
| 20260506182835 | 62 | 315 | 0.0 | 0.0 | 0.00 | 0.00 | 0.00 | 69 | 1005.5 |
| 20260506181823 | 62 | 315 | 0.0 | 0.0 | 0.00 | 0.00 | 0.00 | 69 | 1005.5 |
| 20260506181316 | 63 | 315 | 0.0 | 0.0 | 0.00 | 0.00 | 0.00 | 69 | 1005.4 |
| 20260506175251 | 63 | 347 | 0.0 | 0.9 | 0.00 | 0.00 | 0.00 | 69 | 1005.3 |
| 20260506174238 | 64 | 357 | 0.0 | 0.0 | 0.00 | 0.00 | 0.00 | 69 | 1005.2 |
| 20260506173732 | 64 | 35 | 0.0 | 0.9 | 0.00 | 0.00 | 0.00 | 69 | 1005.2 |
| 20260506173225 | 64 | 32 | 0.0 | 0.9 | 0.00 | 0.00 | 0.00 | 69 | 1005.2 |
| 20260506172719 | 64 | 0 | 0.0 | 0.0 | 0.00 | 0.00 | 0.00 | 68 | 1005.0 |
| 20260506172212 | 64 | 331 | 0.0 | 0.0 | 0.00 | 0.00 | 0.00 | 68 | 1005.1 |
| 20260506171706 | 65 | 322 | 0.0 | 0.0 | 0.00 | 0.00 | 0.00 | 68 | 1005.1 |
| 20260506171159 | 65 | 0 | 0.0 | 0.0 | 0.00 | 0.00 | 0.00 | 69 | 1005.0 |
| 20260506170653 | 65 | 357 | 0.0 | 0.9 | 0.00 | 0.00 | 0.00 | 69 | 1005.0 |
| 20260506165640 | 65 | 42 | 0.0 | 0.0 | 0.00 | 0.00 | 0.00 | 69 | 1004.9 |
| 20260506165134 | 65 | 1 | 0.0 | 0.0 | 0.00 | 0.00 | 0.00 | 69 | 1004.9 |
| 20260506164627 | 65 | 0 | 0.0 | 0.0 | 0.00 | 0.00 | 0.00 | 69 | 1004.9 |
| 20260506164120 | 65 | 33 | 0.0 | 0.0 | 0.00 | 0.00 | 0.00 | 69 | 1005.0 |
| 20260506162054 | 65 | 28 | 0.0 | 1.7 | 0.00 | 0.00 | 0.00 | 70 | 1005.2 |
| 20260506160535 | 65 | 3 | 0.0 | 0.9 | 0.00 | 0.00 | 0.00 | 70 | 1005.4 |
| 20260506160029 | 65 | 357 | 0.0 | 0.9 | 0.00 | 0.00 | 0.00 | 71 | 1005.4 |
| 20260506155522 | 65 | 33 | 0.9 | 1.7 | 0.00 | 0.00 | 0.00 | 72 | 1005.5 |
| 20260506155016 | 65 | 69 | 0.9 | 2.6 | 0.00 | 0.00 | 0.00 | 72 | 1005.6 |
| 20260506154509 | 65 | 51 | 0.9 | 0.9 | 0.00 | 0.00 | 0.00 | 72 | 1005.6 |
| 20260506154003 | 65 | 45 | 0.0 | 0.9 | 0.00 | 0.00 | 0.00 | 71 | 1005.6 |
| 20260506153456 | 65 | 10 | 0.0 | 0.9 | 0.00 | 0.00 | 0.00 | 70 | 1005.8 |
| 20260506152950 | 66 | 18 | 0.9 | 1.7 | 0.00 | 0.00 | 0.00 | 70 | 1005.7 |
| 20260506152443 | 66 | 9 | 0.9 | 1.7 | 0.00 | 0.00 | 0.00 | 71 | 1005.6 |
| 20260506151937 | 66 | 3 | 0.9 | 1.7 | 0.00 | 0.00 | 0.00 | 72 | 1005.5 |
| 20260506151430 | 65 | 40 | 0.9 | 1.7 | 0.00 | 0.00 | 0.00 | 73 | 1005.6 |
| 20260506150417 | 65 | 89 | 0.0 | 0.9 | 0.00 | 0.00 | 0.00 | 72 | 1005.7 |
| 20260506145911 | 65 | 34 | 0.9 | 1.7 | 0.00 | 0.00 | 0.00 | 70 | 1005.9 |
| 20260506145404 | 65 | 296 | 0.9 | 1.7 | 0.00 | 0.00 | 0.00 | 66 | 1006.0 |
| 20260506144858 | 65 | 261 | 1.7 | 2.6 | 0.00 | 0.00 | 0.00 | 65 | 1006.5 |
| 20260506144351 | 66 | 255 | 1.7 | 2.6 | 0.00 | 0.00 | 0.00 | 63 | 1006.4 |
| 20260506143338 | 67 | 273 | 0.9 | 2.6 | 0.00 | 0.00 | 0.00 | 61 | 1006.2 |
| 20260506142832 | 68 | 277 | 1.7 | 2.6 | 0.00 | 0.00 | 0.00 | 60 | 1006.1 |
| 20260506141818 | 69 | 276 | 0.9 | 1.7 | 0.00 | 0.00 | 0.00 | 57 | 1006.1 |
| 20260506135751 | 71 | 315 | 0.0 | 0.0 | 0.00 | 0.00 | 0.00 | 49 | 1006.1 |
| 20260506135244 | 71 | 315 | 0.0 | 0.0 | 0.00 | 0.00 | 0.00 | 48 | 1006.1 |
| 20260506134231 | 72 | 77 | 0.0 | 1.7 | 0.00 | 0.00 | 0.00 | 45 | 1006.2 |
| 20260506133724 | 72 | 43 | 0.0 | 0.9 | 0.00 | 0.00 | 0.00 | 44 | 1006.1 |
| 20260506133217 | 72 | 102 | 0.9 | 1.7 | 0.00 | 0.00 | 0.00 | 42 | 1006.2 |
| 20260506132710 | 72 | 299 | 0.0 | 0.9 | 0.00 | 0.00 | 0.00 | 43 | 1006.2 |
| 20260506132203 | 73 | 27 | 0.0 | 0.9 | 0.00 | 0.00 | 0.00 | 42 | 1006.3 |
| 20260506131656 | 73 | 97 | 0.9 | 1.7 | 0.00 | 0.00 | 0.00 | 42 | 1006.3 |
| 20260506131150 | 73 | 84 | 0.9 | 1.7 | 0.00 | 0.00 | 0.00 | 41 | 1006.4 |
| 20260506130643 | 73 | 43 | 0.9 | 1.7 | 0.00 | 0.00 | 0.00 | 41 | 1006.4 |
| 20260506130136 | 74 | 33 | 0.9 | 1.7 | 0.00 | 0.00 | 0.00 | 41 | 1006.5 |
| 20260506124108 | 75 | 106 | 0.9 | 2.6 | 0.00 | 0.00 | 0.00 | 41 | 1006.6 |
| 20260506123601 | 75 | 71 | 0.9 | 2.6 | 0.00 | 0.00 | 0.00 | 40 | 1006.7 |
| 20260506123054 | 75 | 9 | 0.9 | 1.7 | 0.00 | 0.00 | 0.00 | 42 | 1006.8 |
| 20260506122547 | 75 | 263 | 0.9 | 1.7 | 0.00 | 0.00 | 0.00 | 42 | 1006.9 |
| 20260506122040 | 74 | 106 | 0.9 | 2.6 | 0.00 | 0.00 | 0.00 | 41 | 1007.0 |
| 20260506121026 | 76 | 2 | 0.9 | 1.7 | 0.00 | 0.00 | 0.00 | 42 | 1007.0 |
| 20260506120519 | 75 | 44 | 0.9 | 1.7 | 0.00 | 0.00 | 0.00 | 42 | 1007.2 |
| 20260506120012 | 75 | 44 | 0.9 | 1.7 | 0.00 | 0.00 | 0.00 | 42 | 1007.3 |
| 20260506115505 | 75 | 206 | 0.9 | 2.6 | 0.00 | 0.00 | 0.00 | 41 | 1007.4 |
| 20260506114957 | 75 | 141 | 1.7 | 3.5 | 0.00 | 0.00 | 0.00 | 41 | 1007.4 |
| 20260506114450 | 74 | 215 | 1.7 | 3.5 | 0.00 | 0.00 | 0.00 | 43 | 1007.3 |
| 20260506113943 | 74 | 117 | 2.6 | 4.3 | 0.00 | 0.00 | 0.00 | 41 | 1007.4 |
| 20260506113436 | 75 | 151 | 1.7 | 2.6 | 0.00 | 0.00 | 0.00 | 40 | 1007.5 |
| 20260506112929 | 75 | 218 | 1.7 | 2.6 | 0.00 | 0.00 | 0.00 | 41 | 1007.6 |
| 20260506112423 | 75 | 224 | 2.6 | 5.2 | 0.00 | 0.00 | 0.00 | 41 | 1007.5 |
| 20260506111915 | 75 | 92 | 1.7 | 2.6 | 0.00 | 0.00 | 0.00 | 42 | 1007.6 |
| 20260506105847 | 75 | 194 | 2.6 | 6.1 | 0.00 | 0.00 | 0.00 | 42 | 1007.8 |
| 20260506105340 | 75 | 240 | 2.6 | 5.2 | 0.00 | 0.00 | 0.00 | 44 | 1007.8 |
| 20260506104833 | 74 | 356 | 0.9 | 3.5 | 0.00 | 0.00 | 0.00 | 45 | 1007.7 |
| 20260506104326 | 73 | 258 | 1.7 | 3.5 | 0.00 | 0.00 | 0.00 | 45 | 1007.8 |
| 20260506102805 | 74 | 316 | 1.7 | 3.5 | 0.00 | 0.00 | 0.00 | 44 | 1007.9 |
| 20260506102258 | 73 | 240 | 1.7 | 3.5 | 0.00 | 0.00 | 0.00 | 47 | 1007.9 |
| 20260506100738 | 71 | 283 | 1.7 | 2.6 | 0.00 | 0.00 | 0.00 | 50 | 1008.0 |
| 20260506095724 | 71 | 278 | 1.7 | 3.5 | 0.00 | 0.00 | 0.00 | 50 | 1008.0 |
| 20260506095217 | 70 | 215 | 1.7 | 6.1 | 0.00 | 0.00 | 0.00 | 50 | 1008.1 |
| 20260506094711 | 70 | 259 | 1.7 | 3.5 | 0.00 | 0.00 | 0.00 | 52 | 1008.1 |
| 20260506094204 | 70 | 238 | 1.7 | 2.6 | 0.00 | 0.00 | 0.00 | 51 | 1008.1 |
| 20260506093657 | 69 | 147 | 1.7 | 5.2 | 0.00 | 0.00 | 0.00 | 52 | 1008.1 |
| 20260506093150 | 69 | 245 | 0.9 | 1.7 | 0.00 | 0.00 | 0.00 | 53 | 1008.1 |
| 20260506092137 | 70 | 236 | 2.6 | 4.3 | 0.00 | 0.00 | 0.00 | 52 | 1008.2 |
| 20260506091630 | 70 | 41 | 1.7 | 3.5 | 0.00 | 0.00 | 0.00 | 53 | 1008.2 |
| 20260506091124 | 69 | 253 | 1.7 | 3.5 | 0.00 | 0.00 | 0.00 | 55 | 1008.2 |
| 20260506090617 | 69 | 131 | 1.7 | 2.6 | 0.00 | 0.00 | 0.00 | 54 | 1008.3 |
| 20260506090110 | 69 | 264 | 0.9 | 3.5 | 0.00 | 0.00 | 0.00 | 57 | 1008.3 |
| 20260506085604 | 68 | 282 | 1.7 | 2.6 | 0.00 | 0.00 | 0.00 | 57 | 1008.2 |
| 20260506085057 | 68 | 220 | 1.7 | 4.3 | 0.00 | 0.00 | 0.00 | 56 | 1008.3 |
| 20260506084550 | 68 | 257 | 1.7 | 4.3 | 0.00 | 0.00 | 0.00 | 58 | 1008.3 |
| 20260506084044 | 67 | 261 | 1.7 | 4.3 | 0.00 | 0.00 | 0.00 | 60 | 1008.3 |
| 20260506083537 | 66 | 216 | 1.7 | 2.6 | 0.00 | 0.00 | 0.00 | 62 | 1008.3 |
| 20260506082524 | 66 | 247 | 0.9 | 2.6 | 0.00 | 0.00 | 0.00 | 61 | 1008.3 |
| 20260506082018 | 66 | 203 | 1.7 | 3.5 | 0.00 | 0.00 | 0.00 | 62 | 1008.2 |
| 20260506081511 | 65 | 140 | 1.7 | 3.5 | 0.00 | 0.00 | 0.00 | 65 | 1008.2 |
| 20260506081005 | 65 | 121 | 1.7 | 2.6 | 0.00 | 0.00 | 0.00 | 65 | 1008.2 |
| 20260506080458 | 64 | 247 | 1.7 | 4.3 | 0.00 | 0.00 | 0.00 | 67 | 1008.2 |